sat.trackr.live / text

‹ back to catalog

STARLINK-31280

NORAD 58843 · 2024-017T

PAYLOAD ACTIVE UNKNOWN

§ Identity

Operator
Country
US
Launch date
2024-01-24
Launch site
AFWTR
Launch vehicle
Mass (kg)
RCS (m²)

Purposes: comms

External: N2YO · Heavens-Above · Gunter

§ Orbital elements

Epoch: 2026-09-20T13:59:24.776160Z

Period
93.85 min
Inclination
53.1616°
Eccentricity
0.0001442
Mean motion
15.34387957 rev/d
Perigee alt
461.8 km
Apogee alt
463.7 km
Semi-major
6,840.9 km
B*
2.1207e-5
RAAN
17.0472°
Arg perigee
79.2163°
Mean anomaly
280.9002°
Rev number
14,992

§ Raw data

STARLINK-312801 58843U 24017T   26263.58292565  .00000340  00000+0  21207-4 0  99952 58843  53.1616  17.0472 0001442  79.2163 280.9002 15.34387957149920

JSON: /api/v1/satellites/58843 · /tle

For live sub-satellite position, see the globe view (requires WebGL).

§ Visibility from observer

Set your observer location to see the next 7 days of passes ≥ 10°. The values pass through the URL so the page stays shareable.

No JS? Fill the form by hand. The geolocation button needs JavaScript.